Wind_Speed
51 52 54 56 57 58 61 64 67 72 77 81 84 88 91 93 97 101 101 97 95 97 99 101 102 101 102 102 102 102 105 110 111 106 113 118 122 125 127 130 132 132 129
53 55 58 59 61 64 67 70 73 79 83 87 90 94 96 100 104 102 97 96 98 99 101 102 102 101 102 104 106 109 114 119 123 124 122 126 128 129 126 122 117 116 112
56 59 61 63 66 69 73 75 81 85 89 91 96 99 103 105 101 97 97 99 100 101 101 102 101 102 106 111 116 120 124 127 130 132 127 122 116 114 109 106 105 105 103
60 63 64 67 70 74 77 82 86 90 93 97 100 104 105 99 97 98 99 100 100 102 101 102 107 112 117 121 124 127 129 129 126 121 114 106 103 99 98 95 94 94 90
63 65 68 71 75 79 82 87 91 94 98 102 105 103 96 96 97 98 97 98 98 99 106 111 117 122 126 128 130 129 125 117 112 105 100 96 93 90 88 88 85 83 82
67 70 72 76 80 83 87 90 94 99 103 105 98 95 96 98 97 97 96 95 102 108 114 119 124 128 130 131 126 120 115 107 99 95 91 87 87 83 81 78 76 75 73
71 74 78 80 83 87 90 94 99 102 102 94 94 96 97 96 95 93 98 104 111 118 122 125 129 130 126 118 110 107 104 100 94 86 85 84 81 77 74 71 66 65 64
75 78 81 83 87 90 95 99 102 96 92 93 95 94 94 92 94 99 106 113 119 125 128 131 129 119 114 107 102 99 96 90 87 83 79 77 73 71 67 62 59 57 55
78 80 83 86 90 95 99 98 91 91 92 92 93 91 89 96 101 108 114 119 124 129 132 129 119 110 105 100 96 89 86 83 80 74 71 68 65 62 59 56 52 50 46
79 82 86 91 95 97 93 89 88 90 90 90 88 90 96 102 110 116 120 125 128 128 126 119 112 107 100 94 87 82 79 76 72 67 62 58 56 53 50 47 46 43 42
82 86 91 94 93 87 86 87 87 87 87 85 90 96 103 110 115 121 127 131 129 122 117 109 103 98 92 86 82 77 72 68 64 61 57 51 46 43 40 39 38 36 32
87 90 90 85 83 83 85 84 84 81 83 89 95 102 109 116 122 127 131 130 123 116 109 102 96 89 85 81 77 69 64 60 57 53 48 44 40 37 35 32 30 28 28
87 81 79 80 82 82 81 80 79 83 89 95 101 107 113 120 125 129 128 120 113 108 101 95 88 83 80 74 67 62 58 54 49 44 40 38 35 31 28 28 26 25 24
76 77 79 79 78 78 75 77 83 88 94 101 105 111 118 124 126 123 115 109 103 99 94 88 83 79 74 67 61 56 52 46 41 39 36 32 30 28 26 24 23 22 21
75 76 75 73 70 72 77 83 89 96 101 105 110 116 122 123 120 111 105 99 95 90 84 82 78 71 64 60 55 50 44 39 36 34 31 29 26 25 25 23 22 22 20
73 68 64 65 70 76 83 90 96 100 106 111 118 123 123 118 108 102 98 94 88 83 80 76 70 64 58 52 47 43 38 34 32 30 28 26 26 24 24 22 20 20 18
58 59 64 70 76 83 88 93 99 108 113 119 124 122 116 109 100 94 92 86 80 79 75 69 62 56 52 46 41 37 34 31 29 27 27 27 27 26 23 22 19 18 17
59 64 70 76 83 88 93 99 104 109 116 123 120 114 108 102 94 89 84 80 76 73 68 62 56 50 45 39 35 33 31 29 27 26 25 25 26 26 25 21 19 18 14
65 71 77 83 88 93 99 105 110 117 121 114 111 106 100 94 89 82 77 75 72 66 60 55 49 44 39 35 33 31 29 27 26 26 27 26 24 24 24 24 20 17 13
72 78 83 89 95 100 106 111 117 118 111 108 103 96 89 87 82 77 73 70 64 58 53 48 43 38 34 32 31 30 27 27 27 28 29 28 27 26 24 23 22 16 15
78 84 90 96 101 106 111 116 115 108 106 101 96 88 83 78 74 70 67 62 56 51 45 41 37 34 33 31 30 28 27 30 31 32 33 31 28 25 25 22 21 19 13
85 91 97 102 107 113 116 112 104 101 97 94 87 84 77 72 68 65 60 54 49 44 39 35 34 32 30 28 26 26 29 29 30 29 30 30 28 25 20 19 17 18 14
92 98 102 107 112 116 109 102 97 94 92 86 81 76 70 66 63 58 53 48 43 38 34 33 32 32 30 27 30 31 30 29 27 25 26 27 26 22 16 13 12 14 14
98 103 107 112 115 105 98 94 92 90 84 80 74 68 63 60 55 50 45 41 36 32 31 30 30 32 31 29 33 31 29 27 26 25 25 24 22 18 12 8 8 10 12
104 108 111 114 102 95 92 90 88 83 79 71 65 60 57 52 47 43 38 34 29 28 27 27 29 31 34 37 38 34 28 25 24 23 22 19 17 14 10 6 5 8 11
108 111 114 103 94 91 88 86 82 77 70 63 58 55 49 45 41 36 31 27 25 25 24 24 28 32 37 39 38 34 28 23 22 21 19 16 14 12 9 6 4 5 7
Wind_Direction
263 268 271 273 276 279 284 287 292 294 296 299 301 304 305 306 305 306 306 305 304 304 303 302 302 302 300 298 298 298 298 297 296 294 293 290 289 288 287 286 284 283 283
266 269 271 274 278 283 285 290 294 295 298 302 304 305 306 306 306 306 306 305 304 303 302 303 302 301 301 302 301 300 299 298 298 297 295 292 291 290 288 287 287 286 283
269 272 273 277 281 284 289 293 294 298 302 303 305 306 306 306 306 305 305 304 304 304 304 303 303 304 303 302 301 300 300 298 298 297 296 295 294 292 290 289 287 285 285
272 274 276 280 284 289 291 294 298 301 302 304 305 305 305 305 305 305 304 305 305 305 306 306 305 304 303 302 301 301 301 300 298 297 298 298 294 292 291 289 288 288 288
274 277 280 284 287 289 293 297 299 301 303 304 305 305 305 305 305 305 306 306 306 307 306 305 304 303 303 304 304 304 303 301 300 301 301 299 296 294 293 292 290 289 289
275 279 283 286 289 292 295 298 301 302 303 303 304 304 304 304 306 308 308 308 308 306 305 304 305 305 306 307 306 306 304 303 304 303 302 299 298 297 295 292 290 289 288
277 281 285 288 291 294 297 300 301 302 303 304 304 304 306 307 308 309 310 308 307 305 306 307 307 308 309 308 308 307 306 307 306 305 303 302 300 298 297 296 295 292 290
279 283 287 290 293 296 298 300 301 303 303 304 305 307 308 309 310 309 308 308 307 308 308 309 310 311 311 311 310 309 308 308 307 306 304 303 303 302 301 300 297 295 293
282 286 289 293 296 297 299 300 302 303 303 305 307 308 309 309 309 309 308 309 308 308 311 312 313 313 312 312 311 310 309 308 307 306 306 305 304 303 303 302 299 298 298
285 290 293 295 297 298 300 301 302 304 305 307 309 309 309 309 310 310 309 308 309 313 314 315 315 314 313 313 313 313 311 310 309 308 307 307 306 305 304 304 304 304 303
290 292 294 295 297 299 300 302 304 305 307 309 308 308 309 310 311 311 311 312 314 316 315 315 314 314 315 315 314 314 312 311 311 310 310 308 308 307 306 305 305 306 305
291 292 294 296 298 300 302 304 305 306 307 307 309 310 311 312 312 313 314 315 316 316 315 316 316 316 317 316 315 315 313 313 312 311 311 311 312 311 310 310 310 309 309
292 294 296 298 300 302 303 305 306 307 308 309 310 311 312 312 313 314 315 316 316 315 316 318 318 318 317 316 316 316 316 315 314 313 314 314 313 314 315 317 317 316 315
293 295 298 300 301 303 304 305 306 307 309 310 311 313 313 313 314 315 316 316 316 315 318 319 319 318 318 318 318 318 318 318 317 316 315 315 317 318 320 321 323 323 318
296 297 299 301 303 305 306 307 308 309 310 312 313 313 313 314 316 317 317 317 317 318 320 319 318 318 319 320 320 319 319 319 317 317 317 317 318 320 321 325 329 329 324
297 299 301 303 304 306 307 309 310 311 314 315 316 316 316 317 318 319 319 318 320 320 320 318 320 320 321 321 320 319 320 319 319 318 316 316 317 320 320 324 328 330 327
300 302 303 305 306 307 308 310 312 315 316 317 316 317 318 317 319 320 319 321 322 320 319 321 322 322 321 322 321 320 320 319 319 319 318 318 317 318 320 320 324 329 331
303 304 305 306 306 309 311 313 314 316 317 316 316 317 318 319 320 320 321 322 321 320 321 322 322 322 323 323 321 320 319 318 317 316 316 316 316 314 313 315 315 319 329
304 305 306 307 310 311 313 315 317 317 317 316 316 318 319 319 320 322 322 321 320 321 322 322 321 322 324 324 322 319 316 315 316 317 318 316 312 309 308 308 309 310 314
304 305 308 310 311 313 315 318 318 318 317 316 317 319 319 321 321 323 322 320 321 323 322 321 322 324 324 322 321 320 319 319 316 312 311 310 307 307 308 303 300 298 300
305 308 310 312 313 315 317 318 318 317 316 317 317 319 321 321 322 322 320 321 323 322 322 322 323 326 326 328 327 323 321 321 312 309 309 307 307 310 306 300 291 285 282
309 310 312 314 316 317 319 319 318 317 316 317 320 321 322 323 322 321 321 323 322 322 324 325 327 328 328 332 332 326 323 319 317 314 312 310 313 317 311 295 281 270 265
310 311 314 315 317 319 320 319 317 317 318 319 321 321 322 322 321 320 323 323 323 325 327 330 331 333 335 341 345 339 332 329 328 322 318 319 320 323 316 299 269 253 252
312 313 315 317 320 321 319 317 317 318 319 320 321 321 322 321 320 322 323 323 324 328 331 333 334 339 344 351 352 346 339 337 332 326 323 323 320 322 319 308 269 239 237
313 315 317 321 322 320 318 317 317 318 320 321 320 321 320 320 322 323 324 323 326 331 334 337 340 346 350 351 353 353 351 346 341 337 331 328 325 324 325 312 282 244 229
315 317 321 322 320 318 316 317 318 319 321 320 321 320 321 322 324 324 324 325 332 335 338 342 348 350 349 348 350 356 356 355 355 357 353 354 347 336 325 320 275 230 217
Height
10628 10627 10625 10622 10619 10616 10611 10606 10600 10593 10585 10577 10567 10557 10547 10536 10524 10512 10498 10486 10474 10461 10448 10435 10423 10411 10398 10384 10371 10359 10346 10328 10319 10337 10317 10302 10288 10272 10256 10238 10222 10208 10200
10618 10616 10613 10610 10607 10603 10597 10591 10584 10576 10568 10558 10548 10537 10525 10514 10501 10487 10475 10463 10450 10436 10422 10410 10396 10384 10369 10354 10342 10329 10314 10298 10276 10269 10277 10258 10238 10219 10201 10188 10175 10161 10155
10607 10604 10601 10598 10593 10588 10582 10575 10566 10557 10548 10539 10528 10516 10503 10490 10476 10463 10453 10440 10425 10411 10397 10384 10369 10356 10343 10327 10311 10295 10280 10263 10242 10223 10218 10206 10191 10170 10160 10146 10131 10118 10112
10595 10592 10589 10584 10579 10573 10566 10558 10549 10540 10529 10519 10507 10494 10481 10468 10455 10443 10430 10416 10400 10386 10371 10355 10341 10326 10312 10296 10280 10260 10242 10224 10204 10183 10172 10165 10147 10135 10120 10111 10097 10084 10081
10584 10580 10575 10570 10564 10557 10550 10542 10532 10521 10510 10498 10485 10471 10458 10447 10433 10421 10408 10395 10378 10363 10347 10331 10313 10295 10277 10259 10239 10220 10195 10178 10164 10152 10138 10124 10109 10098 10088 10075 10069 10059 10050
10571 10567 10562 10556 10549 10541 10533 10524 10513 10502 10489 10476 10463 10452 10437 10424 10411 10398 10385 10370 10354 10337 10322 10304 10285 10265 10246 10227 10201 10177 10154 10140 10134 10120 10104 10091 10075 10068 10057 10048 10039 10032 10024
10558 10553 10547 10541 10534 10525 10516 10505 10493 10481 10468 10454 10442 10429 10415 10402 10389 10375 10361 10346 10329 10309 10290 10272 10254 10232 10211 10192 10173 10147 10126 10109 10097 10090 10075 10059 10047 10038 10029 10023 10018 10009 10001
10544 10539 10533 10526 10517 10507 10497 10486 10473 10460 10448 10434 10421 10408 10395 10380 10367 10354 10340 10322 10300 10279 10258 10236 10217 10200 10175 10157 10142 10122 10101 10087 10072 10060 10049 10034 10024 10014 10005 9999 9992 9987 9982
10530 10524 10516 10508 10498 10488 10478 10466 10453 10441 10428 10414 10402 10388 10374 10360 10345 10331 10315 10296 10275 10253 10228 10201 10182 10166 10147 10130 10116 10098 10078 10064 10050 10040 10029 10016 10005 9996 9986 9979 9974 9969 9965
10514 10507 10499 10489 10480 10469 10457 10446 10434 10422 10408 10395 10380 10368 10354 10339 10321 10303 10284 10265 10248 10227 10198 10170 10152 10134 10118 10104 10088 10073 10056 10043 10030 10020 10011 10001 9992 9982 9974 9967 9961 9956 9951
10497 10489 10480 10471 10461 10450 10439 10428 10416 10403 10389 10376 10364 10349 10333 10315 10295 10274 10250 10225 10206 10191 10167 10150 10132 10113 10095 10079 10065 10053 10039 10025 10014 10002 9993 9986 9979 9972 9965 9959 9952 9946 9943
10480 10472 10462 10453 10443 10432 10421 10409 10398 10387 10374 10360 10346 10328 10308 10287 10266 10246 10222 10196 10174 10156 10139 10124 10108 10090 10074 10060 10045 10034 10022 10011 10000 9990 9981 9974 9967 9962 9956 9950 9945 9939 9934
10462 10453 10444 10435 10425 10414 10403 10391 10379 10368 10355 10341 10326 10309 10290 10266 10244 10222 10198 10173 10154 10132 10114 10101 10085 10070 10055 10044 10030 10017 10006 9997 9987 9978 9971 9964 9958 9953 9948 9943 9938 9933 9928
10444 10436 10427 10417 10407 10396 10385 10375 10363 10350 10336 10321 10305 10288 10266 10241 10221 10200 10176 10155 10135 10113 10096 10078 10065 10052 10037 10025 10015 10003 9994 9985 9977 9969 9962 9957 9951 9946 9941 9937 9932 9928 9923
10427 10418 10409 10400 10389 10378 10367 10356 10342 10327 10314 10301 10284 10263 10241 10218 10195 10173 10152 10133 10115 10095 10079 10064 10050 10038 10025 10013 10001 9992 9984 9977 9970 9962 9956 9950 9945 9940 9936 9931 9927 9923 9920
10410 10401 10392 10384 10375 10364 10351 10335 10320 10306 10288 10270 10249 10228 10206 10184 10169 10151 10129 10110 10094 10077 10063 10050 10037 10024 10013 10002 9993 9984 9977 9971 9964 9958 9952 9945 9940 9936 9931 9928 9925 9921 9918
10394 10386 10378 10369 10358 10346 10333 10320 10305 10281 10259 10240 10220 10200 10180 10161 10145 10130 10108 10091 10078 10061 10049 10036 10024 10013 10002 9993 9985 9978 9972 9965 9959 9952 9946 9941 9935 9931 9927 9923 9921 9919 9916
10380 10372 10363 10352 10340 10328 10314 10298 10283 10265 10247 10222 10196 10178 10158 10137 10124 10110 10092 10075 10063 10049 10034 10023 10012 10003 9994 9986 9980 9973 9965 9959 9952 9946 9940 9935 9930 9926 9922 9920 9917 9916 9915
10366 10357 10346 10334 10322 10308 10293 10276 10259 10240 10219 10197 10177 10157 10138 10118 10103 10092 10078 10063 10048 10036 10024 10014 10004 9996 9988 9981 9973 9966 9959 9952 9946 9940 9934 9929 9925 9921 9918 9915 9914 9912 9912
10351 10340 10328 10315 10301 10285 10268 10251 10233 10212 10192 10172 10155 10141 10124 10105 10088 10075 10063 10050 10038 10027 10016 10006 9997 9990 9983 9976 9968 9960 9953 9946 9940 9934 9928 9924 9919 9916 9913 9911 9909 9909 9908
10333 10322 10309 10295 10279 10263 10246 10227 10208 10188 10168 10150 10134 10120 10108 10092 10077 10064 10051 10039 10028 10018 10009 10000 9991 9984 9977 9970 9962 9955 9947 9940 9933 9927 9921 9916 9913 9910 9907 9905 9903 9903 9905
10314 10301 10287 10272 10255 10238 10221 10201 10182 10164 10147 10132 10116 10102 10089 10077 10064 10052 10040 10030 10020 10011 10002 9995 9987 9980 9973 9966 9958 9950 9942 9935 9927 9920 9914 9909 9906 9903 9900 9898 9897 9897 9900
10294 10280 10265 10249 10233 10216 10196 10177 10159 10144 10129 10114 10102 10088 10075 10064 10052 10041 10031 10021 10012 10004 9997 9990 9982 9975 9968 9960 9953 9944 9936 9928 9921 9915 9909 9904 9900 9897 9894 9892 9891 9892 9894
10272 10258 10243 10227 10211 10192 10174 10157 10140 10125 10112 10101 10088 10075 10065 10054 10042 10032 10024 10015 10007 10000 9993 9987 9979 9971 9963 9957 9950 9941 9932 9924 9918 9912 9905 9900 9896 9893 9890 9889 9888 9888 9890
10250 10236 10221 10205 10187 10170 10153 10137 10123 10110 10098 10087 10074 10064 10054 10043 10034 10025 10018 10011 10004 9997 9991 9985 9977 9969 9960 9953 9946 9938 9929 9922 9915 9909 9903 9898 9893 9890 9888 9887 9886 9886 9887
10228 10213 10198 10181 10164 10148 10134 10121 10108 10096 10084 10073 10064 10053 10044 10034 10027 10020 10014 10007 10001 9995 9990 9983 9976 9968 9960 9952 9945 9936 9928 9922 9915 9909 9903 9898 9893 9890 9888 9886 9885 9884 9884